Location: Boiro
(42.6475°N, 8.8834°W)
Time: 01:46:16
(UTC+01:00)

Explorer 7 - All Passes

Search period start: 30 November 2021 00:00
Search period end: 10 December 2021 00:00
Orbit: 483 x 675 km, 50.3° (Epoch: 29 November)

Date Brightness Start Highest point End Pass type
(mag) Time Alt. Az. Time Alt. Az. Time Alt. Az.
30 Nov - 07:36:21 10° SSW 07:39:55 26° SE 07:43:19 10° E visible
30 Nov - 09:16:00 10° WSW 09:20:09 64° NNW 09:24:06 10° NE daylight
30 Nov - 10:57:37 10° WNW 11:01:06 27° N 11:04:26 10° NE daylight
30 Nov - 12:38:48 10° NW 12:42:17 31° NNE 12:45:41 10° ENE daylight
30 Nov - 14:19:12 10° WNW 14:23:00 79° SSW 14:26:44 10° SE daylight
30 Nov - 16:01:21 10° WSW 16:02:51 12° SW 16:04:20 10° SSW daylight
01 Dec - 07:39:47 10° SSW 07:43:49 40° SE 07:47:40 10° ENE visible
01 Dec - 09:20:14 10° W 09:24:16 47° NNW 09:28:06 10° NE daylight
01 Dec - 11:01:56 10° WNW 11:05:20 26° N 11:08:37 10° NE daylight
01 Dec - 12:42:50 10° NW 12:46:29 38° NNE 12:50:01 10° E daylight
01 Dec - 14:23:19 10° WNW 14:26:59 48° SW 14:30:35 10° SE daylight
02 Dec - 06:06:29 10° SSE 06:07:53 11° SE 06:09:16 10° ESE visible
02 Dec - 07:43:31 10° SW 07:47:47 63° SE 07:51:50 10° ENE visible
02 Dec - 09:24:33 10° W 09:28:26 37° NNW 09:32:07 10° NE daylight
02 Dec - 11:06:12 10° NW 11:09:36 26° N 11:12:53 10° ENE daylight
02 Dec - 12:46:51 10° NW 12:50:38 51° NNE 12:54:18 10° ESE daylight
02 Dec - 14:27:34 10° WNW 14:30:53 29° SW 14:34:11 10° SSE daylight
03 Dec - 06:08:37 10° S 06:11:42 19° SE 06:14:40 10° E visible
03 Dec - 07:47:28 10° WSW 07:51:49 86° NNW 07:55:53 10° ENE visible
03 Dec - 09:28:55 10° WNW 09:32:38 31° NNW 09:36:11 10° NE daylight
03 Dec - 11:10:21 10° NW 11:13:51 28° N 11:17:12 10° ENE daylight
03 Dec - 12:50:52 10° WNW 12:54:43 75° NNE 12:58:28 10° ESE daylight
03 Dec - 14:32:06 10° W 14:34:45 18° SW 14:37:22 10° S daylight
04 Dec - 06:11:42 10° SSW 06:15:34 29° SE 06:19:14 10° ENE visible
04 Dec - 07:51:35 10° WSW 07:55:52 61° NNW 07:59:54 10° NE visible
04 Dec - 09:33:16 10° WNW 09:36:52 28° N 09:40:17 10° NE daylight
04 Dec - 11:14:26 10° NW 11:18:04 33° NNE 11:21:33 10° E daylight
04 Dec - 12:54:54 10° WNW 12:58:45 72° SW 13:02:29 10° SE daylight
04 Dec - 14:37:35 10° WSW 14:38:32 11° SW 14:39:28 10° SW daylight
05 Dec - 06:15:13 10° SW 06:19:29 45° SE 06:23:30 10° ENE visible
05 Dec - 07:55:49 10° W 07:59:59 45° NNW 08:03:54 10° NE visible
05 Dec - 09:37:34 10° WNW 09:41:06 27° N 09:44:29 10° ENE daylight
05 Dec - 11:18:28 10° NW 11:22:15 41° NNE 11:25:52 10° E daylight
05 Dec - 12:59:02 10° WNW 13:02:43 44° SW 13:06:17 10° SE daylight
06 Dec - 04:41:18 10° SSE 04:43:28 13° SE 04:45:35 10° ESE visible
06 Dec - 06:18:59 10° SW 06:23:26 70° SE 06:27:37 10° ENE visible
06 Dec - 08:00:08 10° W 08:04:08 36° NNW 08:07:55 10° NE visible
06 Dec - 09:41:48 10° NW 09:45:20 27° N 09:48:45 10° ENE daylight
06 Dec - 11:22:28 10° NW 11:26:23 55° NNE 11:30:07 10° ESE daylight
06 Dec - 13:03:18 10° WNW 13:06:36 27° SW 13:09:48 10° SSE daylight
07 Dec - 04:43:49 10° S 04:47:16 21° SE 04:50:35 10° E visible
07 Dec - 06:22:58 10° WSW 06:27:27 81° NNW 06:31:40 10° ENE visible
07 Dec - 08:04:29 10° WNW 08:08:20 31° NNW 08:11:59 10° NE visible
07 Dec - 09:45:56 10° NW 09:49:35 30° N 09:53:04 10° ENE daylight
07 Dec - 11:26:28 10° WNW 11:30:27 81° NNE 11:34:14 10° ESE daylight
07 Dec - 13:07:54 10° W 13:10:24 17° SW 13:12:52 10° S daylight
08 Dec - 04:47:02 10° SSW 04:51:08 33° SE 04:55:02 10° ENE visible
08 Dec - 06:27:05 10° WSW 06:31:31 58° NNW 06:35:40 10° NE visible
08 Dec - 08:08:49 10° WNW 08:12:33 28° N 08:16:07 10° NE visible
08 Dec - 09:49:59 10° NW 09:53:47 35° NNE 09:57:23 10° E daylight
08 Dec - 11:30:31 10° WNW 11:34:27 66° SW 11:38:12 10° SE daylight
09 Dec - 04:50:35 10° SW 04:55:02 50° SE 04:59:15 10° ENE visible
09 Dec - 06:31:20 10° W 06:35:37 44° NNW 06:39:39 10° NE visible
09 Dec - 08:13:05 10° WNW 08:16:47 28° N 08:20:18 10° ENE visible
09 Dec - 09:54:00 10° NW 09:57:57 44° NNE 10:01:40 10° E daylight
09 Dec - 11:34:39 10° WNW 11:38:23 40° SW 11:41:57 10° SSE daylight
